Time,TemperatureF,DewpointF,PressureIn,WindDirection,WindDirectionDegrees,WindSpeedMPH,WindSpeedGustMPH,Humidity,HourlyPrecipIn,Conditions,Clouds,dailyrainin,SoftwareType,DateUTC
2013-02-03 00:03:00,21.0,18.0,30.05,NW,320,21.0,30.0,85,-99.99,,,-99.99,,2013-02-03 05:03:00,
2013-02-03 00:11:00,21.0,16.0,30.07,NNW,330,21.0,28.0,79,-99.99,,,-99.99,,2013-02-03 05:11:00,
2013-02-03 00:22:00,21.0,16.0,30.07,NNW,330,21.0,28.0,79,-99.99,,,-99.99,,2013-02-03 05:22:00,
2013-02-03 00:32:00,19.0,14.0,30.07,NW,320,20.0,27.0,79,-99.99,,,-99.99,,2013-02-03 05:32:00,
2013-02-03 00:42:00,19.0,14.0,30.07,NW,320,20.0,27.0,79,-99.99,,,-99.99,,2013-02-03 05:42:00,
2013-02-03 00:52:00,19.0,14.0,30.07,NW,320,24.0,33.0,79,-99.99,,,-99.99,,2013-02-03 05:52:00,
2013-02-03 01:02:00,19.0,14.0,30.07,NW,320,24.0,33.0,79,-99.99,,,-99.99,,2013-02-03 06:02:00,
2013-02-03 01:11:00,19.0,14.0,30.07,NW,320,24.0,33.0,79,-99.99,,,-99.99,,2013-02-03 06:11:00,
2013-02-03 01:21:00,19.0,12.0,30.08,NW,310,17.0,24.0,73,-99.99,,,-99.99,,2013-02-03 06:21:00,
2013-02-03 01:32:00,18.0,12.0,30.10,NW,310,17.0,25.0,78,-99.99,,,-99.99,,2013-02-03 06:32:00,
2013-02-03 01:41:00,18.0,12.0,30.10,NW,310,17.0,25.0,78,-99.99,,,-99.99,,2013-02-03 06:41:00,
2013-02-03 01:52:00,18.0,12.0,30.11,NW,320,20.0,25.0,78,-99.99,,,-99.99,,2013-02-03 06:52:00,
2013-02-03 02:01:00,18.0,12.0,30.11,NW,320,20.0,25.0,78,-99.99,,,-99.99,,2013-02-03 07:01:00,
2013-02-03 02:11:00,18.0,12.0,30.11,NW,310,17.0,25.0,78,-99.99,,,-99.99,,2013-02-03 07:11:00,
2013-02-03 02:21:00,18.0,12.0,30.11,NW,310,17.0,25.0,78,-99.99,,,-99.99,,2013-02-03 07:21:00,
2013-02-03 02:31:00,18.0,12.0,30.12,NW,320,18.0,23.0,78,-99.99,,,-99.99,,2013-02-03 07:31:00,
2013-02-03 02:42:00,18.0,12.0,30.12,NW,320,18.0,23.0,78,-99.99,,,-99.99,,2013-02-03 07:42:00,
2013-02-03 02:52:00,16.0,10.0,30.12,NW,310,13.0,22.0,78,-99.99,,,-99.99,,2013-02-03 07:52:00,
2013-02-03 03:01:00,16.0,10.0,30.12,NW,310,13.0,22.0,78,-99.99,,,-99.99,,2013-02-03 08:01:00,
2013-02-03 03:11:00,16.0,10.0,30.12,WNW,300,13.0,17.0,78,-99.99,,,-99.99,,2013-02-03 08:11:00,
2013-02-03 03:22:00,16.0,10.0,30.12,WNW,300,13.0,17.0,78,-99.99,,,-99.99,,2013-02-03 08:22:00,
2013-02-03 03:32:00,16.0,10.0,30.11,WNW,300,12.0,18.0,78,-99.99,,,-99.99,,2013-02-03 08:32:00,
2013-02-03 03:41:00,16.0,10.0,30.11,WNW,300,12.0,18.0,78,-99.99,,,-99.99,,2013-02-03 08:41:00,
2013-02-03 03:52:00,16.0,10.0,30.11,WNW,290,9.0,-999.0,78,-99.99,,,-99.99,,2013-02-03 08:52:00,
2013-02-03 04:02:00,16.0,10.0,30.11,WNW,290,9.0,-999.0,78,-99.99,,,-99.99,,2013-02-03 09:02:00,
2013-02-03 04:11:00,14.0,9.0,30.11,WNW,300,12.0,16.0,78,-99.99,,,-99.99,,2013-02-03 09:11:00,
2013-02-03 04:21:00,14.0,9.0,30.11,WNW,300,12.0,16.0,78,-99.99,,,-99.99,,2013-02-03 09:21:00,
2013-02-03 04:31:00,14.0,9.0,30.10,WNW,300,15.0,-999.0,78,-99.99,,,-99.99,,2013-02-03 09:31:00,
2013-02-03 04:42:00,14.0,9.0,30.10,WNW,300,15.0,-999.0,78,-99.99,,,-99.99,,2013-02-03 09:42:00,
2013-02-03 04:51:00,14.0,9.0,30.10,WNW,300,13.0,18.0,78,-99.99,,,-99.99,,2013-02-03 09:51:00,
2013-02-03 05:01:00,14.0,9.0,30.10,WNW,300,13.0,18.0,78,-99.99,,,-99.99,,2013-02-03 10:01:00,
2013-02-03 05:11:00,14.0,9.0,30.10,WNW,300,10.0,18.0,78,-99.99,,,-99.99,,2013-02-03 10:11:00,
2013-02-03 05:21:00,14.0,9.0,30.10,WNW,300,10.0,18.0,78,-99.99,,,-99.99,,2013-02-03 10:21:00,
2013-02-03 05:31:00,12.0,9.0,30.10,WNW,300,7.0,-999.0,85,-99.99,,,-99.99,,2013-02-03 10:31:00,
2013-02-03 05:42:00,12.0,9.0,30.10,WNW,300,7.0,-999.0,85,-99.99,,,-99.99,,2013-02-03 10:42:00,
2013-02-03 05:52:00,12.0,7.0,30.10,WNW,290,8.0,-999.0,78,-99.99,,,-99.99,,2013-02-03 10:52:00,
2013-02-03 06:02:00,12.0,7.0,30.10,WNW,290,8.0,-999.0,78,-99.99,,,-99.99,,2013-02-03 11:02:00,
2013-02-03 06:11:00,12.0,7.0,30.10,WNW,290,8.0,-999.0,78,-99.99,,,-99.99,,2013-02-03 11:11:00,
2013-02-03 06:22:00,12.0,7.0,30.10,WNW,290,8.0,-999.0,78,-99.99,,,-99.99,,2013-02-03 11:22:00,
2013-02-03 06:32:00,12.0,7.0,30.10,North,0,0.0,-999.0,78,-99.99,,,-99.99,,2013-02-03 11:32:00,
2013-02-03 06:42:00,12.0,7.0,30.10,North,0,0.0,-999.0,78,-99.99,,,-99.99,,2013-02-03 11:42:00,
2013-02-03 06:52:00,12.0,7.0,30.11,West,280,6.0,-999.0,78,-99.99,,,-99.99,,2013-02-03 11:52:00,
2013-02-03 07:02:00,12.0,7.0,30.11,West,280,6.0,-999.0,78,-99.99,,,-99.99,,2013-02-03 12:02:00,
2013-02-03 07:11:00,12.0,7.0,30.09,West,280,6.0,-999.0,78,-99.99,,,-99.99,,2013-02-03 12:11:00,
2013-02-03 07:22:00,12.0,7.0,30.09,West,280,6.0,-999.0,78,-99.99,,,-99.99,,2013-02-03 12:22:00,
2013-02-03 07:32:00,10.0,7.0,30.08,West,260,6.0,-999.0,85,-99.99,,,-99.99,,2013-02-03 12:32:00,
2013-02-03 07:42:00,10.0,7.0,30.08,West,260,6.0,-999.0,85,-99.99,,,-99.99,,2013-02-03 12:42:00,
2013-02-03 07:53:00,12.0,7.0,30.07,West,260,6.0,-999.0,78,-99.99,,,-99.99,,2013-02-03 12:53:00,
2013-02-03 08:03:00,12.0,7.0,30.07,West,260,6.0,-999.0,78,-99.99,,,-99.99,,2013-02-03 13:03:00,
2013-02-03 08:11:00,12.0,7.0,30.07,North,0,0.0,-999.0,78,-99.99,,,-99.99,,2013-02-03 13:11:00,
2013-02-03 08:21:00,12.0,7.0,30.07,North,0,0.0,-999.0,78,-99.99,,,-99.99,,2013-02-03 13:21:00,
2013-02-03 08:32:00,12.0,9.0,30.07,WSW,250,5.0,-999.0,85,-99.99,,,-99.99,,2013-02-03 13:32:00,
2013-02-03 08:42:00,12.0,9.0,30.07,WSW,250,5.0,-999.0,85,-99.99,,,-99.99,,2013-02-03 13:42:00,
2013-02-03 08:52:00,14.0,10.0,30.08,WSW,250,5.0,-999.0,85,-99.99,,,-99.99,,2013-02-03 13:52:00,
2013-02-03 09:02:00,14.0,10.0,30.08,WSW,250,5.0,-999.0,85,-99.99,,,-99.99,,2013-02-03 14:02:00,
2013-02-03 09:11:00,16.0,10.0,30.06,North,-999,-999.0,-999.0,78,-99.99,,,-99.99,,2013-02-03 14:11:00,
2013-02-03 09:21:00,16.0,10.0,30.06,North,-999,-999.0,-999.0,78,-99.99,,,-99.99,,2013-02-03 14:21:00,
2013-02-03 09:32:00,16.0,10.0,30.06,North,-999,-999.0,-999.0,78,-99.99,,,-99.99,,2013-02-03 14:32:00,
2013-02-03 09:42:00,16.0,10.0,30.06,North,-999,-999.0,-999.0,78,-99.99,,,-99.99,,2013-02-03 14:42:00,
2013-02-03 09:52:00,16.0,12.0,30.05,North,-999,-999.0,-999.0,85,-99.99,,,-99.99,,2013-02-03 14:52:00,
2013-02-03 10:03:00,16.0,12.0,30.05,North,-999,-999.0,-999.0,85,-99.99,,,-99.99,,2013-02-03 15:03:00,
2013-02-03 10:11:00,18.0,12.0,30.04,North,-999,-999.0,-999.0,78,-99.99,,,-99.99,,2013-02-03 15:11:00,
2013-02-03 10:22:00,18.0,12.0,30.04,North,-999,-999.0,-999.0,78,-99.99,,,-99.99,,2013-02-03 15:22:00,
2013-02-03 10:32:00,18.0,14.0,30.04,WSW,240,5.0,-999.0,85,-99.99,,,-99.99,,2013-02-03 15:32:00,
2013-02-03 10:42:00,18.0,14.0,30.04,WSW,240,5.0,-999.0,85,-99.99,,,-99.99,,2013-02-03 15:42:00,
2013-02-03 10:51:00,19.0,16.0,30.05,North,0,0.0,-999.0,85,-99.99,,,-99.99,,2013-02-03 15:51:00,
2013-02-03 11:02:00,19.0,16.0,30.05,North,0,0.0,-999.0,85,-99.99,,,-99.99,,2013-02-03 16:02:00,
2013-02-03 11:11:00,19.0,14.0,30.05,South,190,5.0,-999.0,79,-99.99,,,-99.99,,2013-02-03 16:11:00,
2013-02-03 11:22:00,19.0,14.0,30.05,South,190,5.0,-999.0,79,-99.99,,,-99.99,,2013-02-03 16:22:00,
2013-02-03 11:32:00,21.0,16.0,30.04,North,0,0.0,-999.0,79,-99.99,,,-99.99,,2013-02-03 16:32:00,
2013-02-03 11:42:00,21.0,16.0,30.04,North,0,0.0,-999.0,79,-99.99,,,-99.99,,2013-02-03 16:42:00,
2013-02-03 11:52:00,21.0,16.0,30.03,North,0,0.0,-999.0,79,-99.99,,,-99.99,,2013-02-03 16:52:00,
2013-02-03 12:02:00,21.0,16.0,30.03,North,0,0.0,-999.0,79,-99.99,,,-99.99,,2013-02-03 17:02:00,
2013-02-03 12:11:00,23.0,18.0,30.01,North,0,0.0,-999.0,79,-99.99,,,-99.99,,2013-02-03 17:11:00,
2013-02-03 12:22:00,23.0,18.0,30.01,North,0,0.0,-999.0,79,-99.99,,,-99.99,,2013-02-03 17:22:00,
2013-02-03 12:32:00,25.0,18.0,29.99,ESE,120,8.0,-999.0,73,-99.99,,,-99.99,,2013-02-03 17:32:00,
2013-02-03 12:42:00,25.0,18.0,29.99,ESE,120,8.0,-999.0,73,-99.99,,,-99.99,,2013-02-03 17:42:00,
2013-02-03 12:52:00,25.0,18.0,29.97,SE,130,14.0,-999.0,73,-99.99,,,-99.99,,2013-02-03 17:52:00,
2013-02-03 13:03:00,25.0,18.0,29.97,SE,130,14.0,-999.0,73,-99.99,,,-99.99,,2013-02-03 18:03:00,
2013-02-03 13:12:00,25.0,18.0,29.97,SE,130,14.0,-999.0,73,-99.99,,,-99.99,,2013-02-03 18:12:00,
2013-02-03 13:23:00,25.0,18.0,29.95,ESE,120,12.0,16.0,73,-99.99,,,-99.99,,2013-02-03 18:23:00,
2013-02-03 13:32:00,27.0,19.0,29.94,SE,130,10.0,15.0,73,-99.99,,,-99.99,,2013-02-03 18:32:00,
2013-02-03 13:42:00,27.0,19.0,29.94,SE,130,10.0,15.0,73,-99.99,,,-99.99,,2013-02-03 18:42:00,
2013-02-03 13:51:00,28.0,21.0,29.93,SE,140,10.0,15.0,74,-99.99,,,-99.99,,2013-02-03 18:51:00,
2013-02-03 14:02:00,28.0,21.0,29.93,SE,140,10.0,15.0,74,-99.99,,,-99.99,,2013-02-03 19:02:00,
2013-02-03 14:11:00,28.0,25.0,29.92,SE,140,12.0,18.0,86,-99.99,,,-99.99,,2013-02-03 19:11:00,
2013-02-03 14:22:00,28.0,25.0,29.92,SE,140,12.0,18.0,86,-99.99,,,-99.99,,2013-02-03 19:22:00,
2013-02-03 14:32:00,30.0,25.0,29.91,SE,140,12.0,16.0,80,-99.99,,,-99.99,,2013-02-03 19:32:00,
2013-02-03 14:42:00,30.0,25.0,29.91,SE,140,12.0,16.0,80,-99.99,,,-99.99,,2013-02-03 19:42:00,
2013-02-03 14:51:00,30.0,25.0,29.89,ESE,120,8.0,-999.0,80,-99.99,,,-99.99,,2013-02-03 19:51:00,
2013-02-03 15:01:00,30.0,25.0,29.89,ESE,120,8.0,-999.0,80,-99.99,,,-99.99,,2013-02-03 20:01:00,
2013-02-03 15:12:00,32.0,27.0,29.89,ESE,110,6.0,-999.0,80,-99.99,,,-99.99,,2013-02-03 20:12:00,
2013-02-03 15:21:00,32.0,27.0,29.89,ESE,110,6.0,-999.0,80,-99.99,,,-99.99,,2013-02-03 20:21:00,
2013-02-03 15:32:00,34.0,28.0,29.87,ESE,110,6.0,-999.0,80,-99.99,,,-99.99,,2013-02-03 20:32:00,
2013-02-03 15:42:00,34.0,28.0,29.87,ESE,110,6.0,-999.0,80,-99.99,,,-99.99,,2013-02-03 20:42:00,
2013-02-03 15:52:00,34.0,28.0,29.86,East,100,7.0,-999.0,80,-99.99,,,-99.99,,2013-02-03 20:52:00,
2013-02-03 16:03:00,34.0,28.0,29.86,East,100,7.0,-999.0,80,-99.99,,,-99.99,,2013-02-03 21:03:00,
2013-02-03 16:11:00,34.0,30.0,29.84,ESE,110,6.0,-999.0,86,-99.99,,,-99.99,,2013-02-03 21:11:00,
2013-02-03 16:21:00,34.0,30.0,29.84,ESE,110,6.0,-999.0,86,-99.99,,,-99.99,,2013-02-03 21:21:00,
2013-02-03 16:32:00,36.0,30.0,29.83,ESE,110,7.0,-999.0,80,-99.99,,,-99.99,,2013-02-03 21:32:00,
2013-02-03 16:42:00,36.0,30.0,29.83,ESE,110,7.0,-999.0,80,-99.99,,,-99.99,,2013-02-03 21:42:00,
2013-02-03 16:51:00,36.0,32.0,29.82,North,0,0.0,-999.0,86,-99.99,,,-99.99,,2013-02-03 21:51:00,
2013-02-03 17:01:00,36.0,32.0,29.82,North,0,0.0,-999.0,86,-99.99,,,-99.99,,2013-02-03 22:01:00,
2013-02-03 17:11:00,36.0,32.0,29.81,East,100,5.0,-999.0,86,-99.99,,,-99.99,,2013-02-03 22:11:00,
2013-02-03 17:21:00,36.0,32.0,29.81,East,100,5.0,-999.0,86,-99.99,,,-99.99,,2013-02-03 22:21:00,
2013-02-03 17:32:00,37.0,34.0,29.81,North,0,0.0,-999.0,86,-99.99,,,-99.99,,2013-02-03 22:32:00,
2013-02-03 17:41:00,37.0,34.0,29.81,North,0,0.0,-999.0,86,-99.99,,,-99.99,,2013-02-03 22:41:00,
2013-02-03 17:51:00,37.0,34.0,29.80,North,0,0.0,-999.0,86,-99.99,,,-99.99,,2013-02-03 22:51:00,
2013-02-03 18:01:00,37.0,34.0,29.80,North,0,0.0,-999.0,86,-99.99,,,-99.99,,2013-02-03 23:01:00,
2013-02-03 18:12:00,36.0,32.0,29.79,East,90,6.0,-999.0,86,-99.99,,,-99.99,,2013-02-03 23:12:00,
2013-02-03 18:22:00,36.0,32.0,29.79,East,90,6.0,-999.0,86,-99.99,,,-99.99,,2013-02-03 23:22:00,
2013-02-03 18:32:00,34.0,30.0,29.79,North,0,0.0,-999.0,86,-99.99,,,-99.99,,2013-02-03 23:32:00,
2013-02-03 18:42:00,34.0,30.0,29.79,North,0,0.0,-999.0,86,-99.99,,,-99.99,,2013-02-03 23:42:00,
2013-02-03 18:52:00,34.0,30.0,29.79,NNE,20,6.0,-999.0,86,-99.99,,,-99.99,,2013-02-03 23:52:00,
2013-02-03 19:01:00,34.0,30.0,29.79,NNE,20,6.0,-999.0,86,-99.99,,,-99.99,,2013-02-04 00:01:00,
2013-02-03 19:11:00,32.0,28.0,29.78,NE,40,6.0,-999.0,86,-99.99,,,-99.99,,2013-02-04 00:11:00,
2013-02-03 19:22:00,32.0,28.0,29.78,NE,40,6.0,-999.0,86,-99.99,,,-99.99,,2013-02-04 00:22:00,
2013-02-03 19:32:00,30.0,28.0,29.78,NNE,30,9.0,-999.0,92,-99.99,,,-99.99,,2013-02-04 00:32:00,
2013-02-03 19:41:00,30.0,28.0,29.78,NNE,30,9.0,-999.0,92,-99.99,,,-99.99,,2013-02-04 00:41:00,
2013-02-03 19:51:00,30.0,28.0,29.78,NE,40,8.0,-999.0,92,-99.99,,,-99.99,,2013-02-04 00:51:00,
2013-02-03 20:01:00,30.0,28.0,29.78,NE,40,8.0,-999.0,92,-99.99,,,-99.99,,2013-02-04 01:01:00,
2013-02-03 20:11:00,30.0,28.0,29.78,NE,40,7.0,-999.0,92,-99.99,,,-99.99,,2013-02-04 01:11:00,
2013-02-03 20:21:00,30.0,28.0,29.78,NE,40,7.0,-999.0,92,-99.99,,,-99.99,,2013-02-04 01:21:00,
2013-02-03 20:32:00,28.0,27.0,29.78,NNE,30,5.0,-999.0,92,-99.99,,,-99.99,,2013-02-04 01:32:00,
2013-02-03 20:41:00,28.0,27.0,29.78,NNE,30,5.0,-999.0,92,-99.99,,,-99.99,,2013-02-04 01:41:00,
2013-02-03 20:52:00,28.0,27.0,29.78,NNE,30,9.0,-999.0,92,-99.99,,,-99.99,,2013-02-04 01:52:00,
2013-02-03 21:02:00,28.0,27.0,29.78,NNE,30,9.0,-999.0,92,-99.99,,,-99.99,,2013-02-04 02:02:00,
2013-02-03 21:11:00,27.0,25.0,29.78,NE,40,8.0,-999.0,92,-99.99,,,-99.99,,2013-02-04 02:11:00,
2013-02-03 21:21:00,27.0,25.0,29.78,NE,40,8.0,-999.0,92,-99.99,,,-99.99,,2013-02-04 02:21:00,
2013-02-03 21:31:00,27.0,23.0,29.78,NE,40,7.0,-999.0,86,-99.99,,,-99.99,,2013-02-04 02:31:00,
2013-02-03 21:41:00,27.0,23.0,29.78,NE,40,7.0,-999.0,86,-99.99,,,-99.99,,2013-02-04 02:41:00,
2013-02-03 21:52:00,27.0,23.0,29.78,NNE,30,7.0,-999.0,86,-99.99,,,-99.99,,2013-02-04 02:52:00,
2013-02-03 22:02:00,27.0,23.0,29.78,NNE,30,7.0,-999.0,86,-99.99,,,-99.99,,2013-02-04 03:02:00,
2013-02-03 22:11:00,27.0,23.0,29.78,NNE,30,7.0,-999.0,86,-99.99,,,-99.99,,2013-02-04 03:11:00,
2013-02-03 22:21:00,27.0,23.0,29.78,NNE,30,7.0,-999.0,86,-99.99,,,-99.99,,2013-02-04 03:21:00,
2013-02-03 22:32:00,25.0,21.0,29.77,NNE,30,8.0,-999.0,85,-99.99,,,-99.99,,2013-02-04 03:32:00,
2013-02-03 22:42:00,25.0,21.0,29.77,NNE,30,8.0,-999.0,85,-99.99,,,-99.99,,2013-02-04 03:42:00,
2013-02-03 22:52:00,25.0,21.0,29.78,North,10,9.0,-999.0,85,-99.99,,,-99.99,,2013-02-04 03:52:00,
2013-02-03 23:01:00,25.0,21.0,29.78,North,10,9.0,-999.0,85,-99.99,,,-99.99,,2013-02-04 04:01:00,
2013-02-03 23:11:00,25.0,21.0,29.79,North,350,10.0,15.0,85,-99.99,,,-99.99,,2013-02-04 04:11:00,
2013-02-03 23:21:00,25.0,21.0,29.79,North,350,10.0,15.0,85,-99.99,,,-99.99,,2013-02-04 04:21:00,
2013-02-03 23:32:00,25.0,21.0,29.79,North,10,9.0,-999.0,85,-99.99,,,-99.99,,2013-02-04 04:32:00,
2013-02-03 23:41:00,25.0,21.0,29.79,North,10,9.0,-999.0,85,-99.99,,,-99.99,,2013-02-04 04:41:00,
2013-02-03 23:52:00,23.0,19.0,29.80,North,10,9.0,-999.0,85,-99.99,,,-99.99,,2013-02-04 04:52:00,